Simultaneous Nadir Overpasses (SNOs) Predictions

Prediction of SNOs between NOAA-19 and TERRA Satellite Orbit:

Table of predicted SNOs for the next 14.0 days since TLE Epoch: 5/13/2023
Index Date (NOAA-19) Time (NOAA-19) Lat,Lon (NOAA-19) SZA (NOAA-19 ) Date (TERRA) Time (TERRA) Lat,Lon (TERRA) SZA (TERRA ) Distance(km) Time Diff (sec)
1 05/13/2023 17:51:40 -80.92, 126.07 115.85 05/13/2023 17:51:40 -80.93, 126.24 115.83 3.09 0
2 05/15/2023 21:42:08 80.92,-111.58 63.64 05/15/2023 21:42:03 80.91,-111.60 63.62 1.30 5
3 05/18/2023 01:32:45 -80.92, 10.93 116.84 05/18/2023 01:32:24 -80.92, 10.93 116.85 0.10 21
4 05/20/2023 04:32:19 -80.92, -34.42 117.35 05/20/2023 04:33:23 -80.92, -34.36 117.32 1.07 64
5 05/20/2023 05:23:13 80.92, 133.30 62.70 05/20/2023 05:22:45 80.93, 133.40 62.70 2.00 28
6 05/22/2023 08:22:47 80.92, 87.99 62.22 05/22/2023 08:23:44 80.91, 87.93 62.23 1.08 57
7 05/22/2023 09:13:49 -80.92,-104.18 117.73 05/22/2023 09:13:06 -80.92,-104.32 117.77 2.37 43
8 05/24/2023 12:13:23 -80.92,-149.69 118.21 05/24/2023 12:14:04 -80.92,-149.56 118.17 2.48 41
9 05/24/2023 13:04:17 80.92, 18.29 61.86 05/24/2023 13:03:26 80.93, 18.14 61.83 2.65 51
10 05/26/2023 16:03:51 80.92, -27.15 61.42 05/26/2023 16:04:24 80.91, -27.29 61.42 2.47 33



Historial Predications of SNOs between NOAA-19 and TERRA
